Weather History for Homestead AFB, FL

Change the Weather History Date:

Sunday, March 24, 2013

  Actual Average Record
Temperature  
Mean Temperature 79 °F -  
Max Temperature 86 °F 80 °F 92 °F (1944)
Min Temperature 72 °F 58 °F 40 °F (1950)
Cooling Degree Days 14    
Growing Degree Days 29 (Base 50)    
Moisture  
Dew Point 73 °F    
Average Humidity 84    
Maximum Humidity 100    
Minimum Humidity 62    
Precipitation  
Precipitation 0.40 in - - ()
Sea Level Pressure  
Sea Level Pressure 29.82 in    
Wind  
Wind Speed 9 mph (SSW)    
Max Wind Speed 26 mph    
Max Gust Speed 36 mph    
Visibility 8 miles    
Events      
Averages and records for this station are not official NWS values.
T = Trace of Precipitation, MM = Missing Value Source: NWS Daily Summary

Daily Weather History Graph

Daily Weather History Graph

Search for Another Location

Airport:

Trip Planner

Search our weather history database for the weather conditions in past years. The results will help you decide how hot, cold, wet, or windy it might be!

Date:

Astronomy

Mar. 24, 2013 Rise Set
Actual Time 7:21 AM EDT 7:34 PM EDT
Civil Twilight 6:58 AM EDT 7:57 PM EDT
Nautical Twilight 6:31 AM EDT 8:24 PM EDT
Astronomical Twilight 6:04 AM EDT 8:51 PM EDT
Moon 5:13 PM EDT (3/24) 5:15 AM EDT (3/24)
Length of Visible Light 12h 59m
Length of Day
12h 13m
Waxing Gibbous, 91% of the Moon is Illuminated
Mar 24
Waxing Gibbous
Mar 27
Full
Apr 3
Last Quarter
Apr 10
New
Apr 18
First Quarter

Hourly Weather History & Observations

Time (EDT) Temp. Heat Index Dew Point Humidity Pressure Visibility Wind Dir Wind Speed Gust Speed Precip Events Conditions
12:58 AM 75.2 °F - 73.4 °F 94% 29.91 in 6.0 mi SSE 3.5 mph - N/A   Partly Cloudy
1:58 AM 74.7 °F - 73.8 °F 97% 29.89 in 6.0 mi SSE 4.6 mph - N/A   Clear
2:58 AM 74.8 °F - 73.9 °F 97% 29.87 in 7.0 mi SSE 5.8 mph - N/A   Clear
3:48 AM 75.2 °F - 73.4 °F 94% 29.85 in 5.0 mi SSE 5.8 mph - N/A   Clear
3:58 AM 74.5 °F - 73.9 °F 98% 29.85 in 5.0 mi SSE 5.8 mph - N/A   Clear
4:18 AM 75.2 °F - 73.4 °F 94% 29.84 in 5.0 mi SSE 5.8 mph - N/A   Clear
4:28 AM 75.2 °F - 73.4 °F 94% 29.84 in 5.0 mi SSE 5.8 mph - N/A   Clear
4:58 AM 74.1 °F - 73.6 °F 98% 29.85 in 4.0 mi SSE 5.8 mph - N/A   Clear
5:58 AM 73.2 °F - 72.7 °F 98% 29.85 in 5.0 mi South 5.8 mph - N/A   Clear
6:03 AM 73.4 °F - 73.4 °F 100% 29.84 in 6.0 mi South 5.8 mph - N/A   Clear
6:58 AM 72.7 °F - 72.1 °F 98% 29.84 in 10.0 mi South 5.8 mph - N/A   Clear
7:58 AM 73.6 °F - 72.7 °F 97% 29.84 in 9.0 mi South 5.8 mph - N/A   Clear
8:58 AM 76.6 °F - 75.0 °F 95% 29.83 in 10.0 mi South 15.0 mph - N/A   Partly Cloudy
9:58 AM 78.8 °F - 73.0 °F 82% 29.81 in 10.0 mi South 20.7 mph 35.7 mph 0.01 in   Scattered Clouds
10:58 AM 81.9 °F 87.0 °F 73.0 °F 74% 29.81 in 10.0 mi SSW 26.5 mph 35.7 mph 0.05 in   Scattered Clouds
11:58 AM 83.5 °F 90.0 °F 73.4 °F 72% 29.81 in 10.0 mi South 23.0 mph 35.7 mph 0.12 in   Clear
12:58 PM 84.7 °F 91.0 °F 72.9 °F 67% 29.80 in 10.0 mi South 24.2 mph 32.2 mph 0.10 in   Partly Cloudy
1:58 PM 85.3 °F 92.2 °F 73.0 °F 67% 29.80 in 10.0 mi SSW 23.0 mph 31.1 mph 0.12 in   Partly Cloudy
2:58 PM 85.8 °F 92.6 °F 72.9 °F 65% 29.78 in 10.0 mi SW 25.3 mph 32.2 mph N/A   Clear
3:58 PM 86.2 °F 93.0 °F 72.7 °F 64% 29.75 in 10.0 mi SW 16.1 mph 27.6 mph N/A   Partly Cloudy
4:58 PM 85.8 °F 91.5 °F 71.4 °F 62% 29.74 in 10.0 mi SW 23.0 mph 27.6 mph N/A   Partly Cloudy
5:58 PM 84.9 °F 89.7 °F 70.5 °F 62% 29.75 in 10.0 mi West 16.1 mph - N/A   Partly Cloudy
6:58 PM 82.9 °F 86.7 °F 69.8 °F 64% 29.77 in 10.0 mi West 18.4 mph - N/A   Partly Cloudy
7:58 PM 79.3 °F - 70.3 °F 74% 29.78 in 10.0 mi WSW 13.8 mph - N/A   Clear
8:58 PM 77.7 °F - 70.9 °F 79% 29.80 in 10.0 mi WSW 9.2 mph - N/A   Clear
9:58 PM 75.9 °F - 70.7 °F 84% 29.82 in 10.0 mi WSW 5.8 mph - N/A   Partly Cloudy
10:58 PM 75.2 °F - 71.1 °F 87% 29.82 in 10.0 mi WSW 5.8 mph - N/A   Partly Cloudy
11:58 PM 76.1 °F - 71.8 °F 86% 29.82 in 10.0 mi SSW 5.8 mph - N/A   Partly Cloudy